• en France
  • Liste des pays
  • À 7 jours
  • Température de l'eau
  • Carte satellitaire
  • Carte météo
  • Widgets météo
  • user-avatar
    Se connecter

    Météo par heure à Kapan

    Ce jour, 17 Juillet, Mardi

    Heure Température Précipitation Vent Pression Humidité
    00:00 +21°C° 0 mm 2 m/s 679 mmHg 78%
    01:00 +21°C° 0,1 mm 2 m/s 679 mmHg 80%
    02:00 +21°C° 0,1 mm 2 m/s 679 mmHg 81%
    03:00 +21°C° 0 mm 2 m/s 679 mmHg 82%
    04:00 +21°C° 0 mm 2 m/s 680 mmHg 80%
    05:00 +21°C° 0 mm 2 m/s 680 mmHg 78%
    06:00 +21°C° 0 mm 2 m/s 680 mmHg 76%
    07:00 +24°C° 0 mm 2 m/s 680 mmHg 67%
    08:00 +25°C° 0 mm 3 m/s 681 mmHg 58%
    09:00 +27°C° 0 mm 3 m/s 681 mmHg 49%
    10:00 +28°C° 0 mm 3 m/s 681 mmHg 45%
    11:00 +29°C° 0 mm 3 m/s 681 mmHg 42%
    12:00 +30°C° 0 mm 4 m/s 680 mmHg 38%
    13:00 +30°C° 0,1 mm 4 m/s 680 mmHg 39%
    14:00 +32°C° 0,1 mm 4 m/s 680 mmHg 39%
    15:00 +32°C° 0,1 mm 4 m/s 680 mmHg 39%
    16:00 +29°C° 0,3 mm 4 m/s 680 mmHg 46%
    17:00 +28°C° 0,3 mm 3 m/s 680 mmHg 53%
    18:00 +27°C° 0,3 mm 3 m/s 680 mmHg 60%
    19:00 +25°C° 0,1 mm 3 m/s 680 mmHg 65%
    20:00 +24°C° 0,1 mm 2 m/s 680 mmHg 70%
    21:00 +23°C° 0,1 mm 2 m/s 681 mmHg 75%
    22:00 +23°C° 0 mm 2 m/s 681 mmHg 77%
    23:00 +22°C° 0 mm 1 m/s 681 mmHg 78%

    Demain, 18 Juillet, Mercredi

    Heure Température Précipitation Vent Pression Humidité
    00:00 +22°C° 0 mm 1 m/s 681 mmHg 80%
    01:00 +22°C° 0 mm 1 m/s 681 mmHg 81%
    02:00 +21°C° 0 mm 1 m/s 681 mmHg 81%
    03:00 +21°C° 0 mm 1 m/s 681 mmHg 81%
    04:00 +21°C° 0 mm 1 m/s 681 mmHg 79%
    05:00 +22°C° 0 mm 1 m/s 681 mmHg 76%
    06:00 +23°C° 0 mm 1 m/s 681 mmHg 73%
    07:00 +24°C° 0 mm 2 m/s 681 mmHg 65%
    08:00 +26°C° 0 mm 2 m/s 681 mmHg 56%
    09:00 +28°C° 0 mm 3 m/s 681 mmHg 48%
    10:00 +29°C° 0 mm 3 m/s 681 mmHg 44%
    11:00 +31°C° 0 mm 3 m/s 681 mmHg 40%
    12:00 +33°C° 0 mm 3 m/s 681 mmHg 36%
    13:00 +34°C° 0 mm 3 m/s 680 mmHg 34%
    14:00 +34°C° 0 mm 3 m/s 680 mmHg 33%
    15:00 +35°C° 0 mm 3 m/s 679 mmHg 32%
    16:00 +34°C° 0 mm 3 m/s 679 mmHg 34%
    17:00 +33°C° 0 mm 3 m/s 679 mmHg 36%
    18:00 +31°C° 0 mm 3 m/s 679 mmHg 38%
    19:00 +29°C° 0 mm 3 m/s 679 mmHg 45%
    20:00 +27°C° 0 mm 2 m/s 679 mmHg 51%
    21:00 +25°C° 0 mm 2 m/s 679 mmHg 57%
    22:00 +25°C° 0 mm 2 m/s 679 mmHg 58%
    23:00 +24°C° 0 mm 2 m/s 679 mmHg 59%

    Après-demain, 19 Juillet, Jeudi

    Heure Température Précipitation Vent Pression Humidité
    00:00 +24°C° 0 mm 2 m/s 679 mmHg 59%
    01:00 +24°C° 0 mm 2 m/s 679 mmHg 60%
    02:00 +24°C° 0 mm 2 m/s 679 mmHg 61%
    03:00 +23°C° 0 mm 2 m/s 679 mmHg 62%
    04:00 +24°C° 0 mm 1 m/s 679 mmHg 60%
    05:00 +25°C° 0 mm 1 m/s 679 mmHg 58%
    06:00 +25°C° 0 mm 1 m/s 679 mmHg 56%
    07:00 +27°C° 0 mm 1 m/s 680 mmHg 51%
    08:00 +29°C° 0 mm 2 m/s 680 mmHg 45%
    09:00 +31°C° 0 mm 2 m/s 680 mmHg 39%
    10:00 +34°C° 0 mm 3 m/s 680 mmHg 35%
    11:00 +35°C° 0 mm 3 m/s 680 mmHg 31%
    12:00 +37°C° 0 mm 3 m/s 680 mmHg 27%
    13:00 +37°C° 0 mm 4 m/s 680 mmHg 26%
    14:00 +38°C° 0 mm 4 m/s 679 mmHg 24%
    15:00 +40°C° 0 mm 4 m/s 679 mmHg 23%
    16:00 +38°C° 0 mm 3 m/s 679 mmHg 26%
    17:00 +37°C° 0 mm 3 m/s 678 mmHg 29%
    18:00 +35°C° 0 mm 3 m/s 678 mmHg 33%
    19:00 +33°C° 0 mm 3 m/s 678 mmHg 42%
    20:00 +30°C° 0 mm 2 m/s 678 mmHg 52%
    21:00 +27°C° 0 mm 1 m/s 679 mmHg 61%
    22:00 +27°C° 0 mm 2 m/s 679 mmHg 62%
    23:00 +26°C° 0 mm 2 m/s 679 mmHg 64%

    20 Juillet, Vendredi

    Heure Température Précipitation Vent Pression Humidité
    00:00 +26°C° 0 mm 2 m/s 679 mmHg 65%
    01:00 +26°C° 0 mm 2 m/s 679 mmHg 65%
    02:00 +25°C° 0 mm 2 m/s 678 mmHg 65%
    03:00 +25°C° 0 mm 2 m/s 678 mmHg 65%
    04:00 +26°C° 0 mm 2 m/s 679 mmHg 62%
    05:00 +26°C° 0 mm 2 m/s 679 mmHg 60%
    06:00 +27°C° 0 mm 1 m/s 679 mmHg 57%
    07:00 +29°C° 0 mm 2 m/s 679 mmHg 51%
    08:00 +31°C° 0 mm 2 m/s 680 mmHg 44%
    09:00 +34°C° 0 mm 2 m/s 680 mmHg 38%
    10:00 +35°C° 0 mm 3 m/s 680 mmHg 34%
    11:00 +36°C° 0 mm 3 m/s 679 mmHg 30%
    12:00 +38°C° 0 mm 3 m/s 679 mmHg 26%
    13:00 +38°C° 0 mm 4 m/s 679 mmHg 25%
    14:00 +40°C° 0 mm 4 m/s 679 mmHg 24%
    15:00 +40°C° 0 mm 4 m/s 678 mmHg 22%
    16:00 +38°C° 0 mm 4 m/s 678 mmHg 25%
    17:00 +37°C° 0 mm 4 m/s 678 mmHg 28%
    18:00 +36°C° 0 mm 3 m/s 677 mmHg 31%
    19:00 +34°C° 0 mm 3 m/s 677 mmHg 40%
    20:00 +30°C° 0 mm 2 m/s 678 mmHg 49%
    21:00 +28°C° 0 mm 2 m/s 678 mmHg 58%
    22:00 +27°C° 0 mm 2 m/s 678 mmHg 60%
    23:00 +27°C° 0 mm 2 m/s 678 mmHg 61%

    21 Juillet, Samedi

    Heure Température Précipitation Vent Pression Humidité
    00:00 +26°C° 0 mm 2 m/s 678 mmHg 63%
    01:00 +26°C° 0 mm 2 m/s 678 mmHg 64%
    02:00 +25°C° 0 mm 2 m/s 678 mmHg 65%
    03:00 +25°C° 0 mm 2 m/s 678 mmHg 66%
    04:00 +25°C° 0 mm 2 m/s 678 mmHg 64%
    05:00 +26°C° 0 mm 2 m/s 678 mmHg 62%
    06:00 +26°C° 0 mm 2 m/s 679 mmHg 60%
    07:00 +28°C° 0 mm 2 m/s 679 mmHg 53%
    08:00 +30°C° 0 mm 2 m/s 679 mmHg 46%
    09:00 +33°C° 0 mm 3 m/s 679 mmHg 39%
    10:00 +34°C° 0 mm 3 m/s 679 mmHg 36%
    11:00 +35°C° 0 mm 3 m/s 679 mmHg 33%
    12:00 +36°C° 0 mm 4 m/s 679 mmHg 29%
    13:00 +37°C° 0 mm 4 m/s 679 mmHg 28%
    14:00 +37°C° 0 mm 4 m/s 678 mmHg 27%
    15:00 +38°C° 0 mm 4 m/s 678 mmHg 27%
    16:00 +37°C° 0 mm 4 m/s 678 mmHg 29%
    17:00 +36°C° 0 mm 4 m/s 678 mmHg 32%
    18:00 +35°C° 0 mm 4 m/s 677 mmHg 35%
    19:00 +33°C° 0 mm 3 m/s 677 mmHg 41%
    20:00 +30°C° 0 mm 3 m/s 678 mmHg 47%
    21:00 +28°C° 0 mm 2 m/s 678 mmHg 53%
    22:00 +27°C° 0 mm 2 m/s 678 mmHg 56%
    23:00 +27°C° 0 mm 2 m/s 678 mmHg 58%

    22 Juillet, Dimanche

    Heure Température Précipitation Vent Pression Humidité
    00:00 +26°C° 0 mm 2 m/s 678 mmHg 60%
    01:00 +26°C° 0 mm 2 m/s 678 mmHg 62%
    02:00 +25°C° 0 mm 2 m/s 678 mmHg 64%
    03:00 +25°C° 0 mm 2 m/s 678 mmHg 65%
    04:00 +25°C° 0 mm 2 m/s 678 mmHg 62%
    05:00 +26°C° 0 mm 2 m/s 678 mmHg 59%
    06:00 +26°C° 0 mm 2 m/s 678 mmHg 56%
    07:00 +28°C° 0 mm 2 m/s 679 mmHg 49%
    08:00 +30°C° 0 mm 3 m/s 679 mmHg 42%
    09:00 +33°C° 0 mm 3 m/s 679 mmHg 35%
    10:00 +34°C° 0 mm 3 m/s 679 mmHg 32%
    11:00 +35°C° 0 mm 4 m/s 679 mmHg 29%
    12:00 +36°C° 0 mm 4 m/s 678 mmHg 26%
    13:00 +37°C° 0 mm 4 m/s 678 mmHg 25%
    14:00 +37°C° 0 mm 4 m/s 678 mmHg 25%
    15:00 +38°C° 0 mm 4 m/s 677 mmHg 24%
    16:00 +37°C° 0 mm 4 m/s 677 mmHg 26%
    17:00 +36°C° 0 mm 4 m/s 677 mmHg 29%
    18:00 +35°C° 0 mm 4 m/s 677 mmHg 31%
    19:00 +33°C° 0 mm 3 m/s 677 mmHg 36%
    20:00 +30°C° 0 mm 3 m/s 677 mmHg 42%
    21:00 +27°C° 0 mm 2 m/s 677 mmHg 47%
    22:00 +27°C° 0 mm 2 m/s 677 mmHg 49%
    23:00 +26°C° 0 mm 2 m/s 677 mmHg 51%
    Voir plus